This demonstration page uses our WeatherBlox Daily Observations layout. Learn more.

Left ArrowRight Arrow

44.89941, -97.11507

Hourly Observations for June 7, 2018

Temp ( °F °C ) Dew Point ( °F °C ) Humidity (%) Winds ( mph kmh ) Pressure ( in mb ) Visibility ( mi km ) Precip ( " mm )
12:53 am 00:53 Mostly Clear 60 15.6 51 10.6 72 72 NE 5 7 29.99 1016 10 16 0.00 0.00
1:53 am 01:53 Partly Cloudy 60 15.6 50 10 70 70 ENE 6 9 29.97 1015 10 16 0.00 0.00
2:53 am 02:53 Clear 61 16.1 50 10 67 67 ENE 9 15 29.96 1015 10 16 0.00 0.00
3:53 am 03:53 Mostly Clear 61 16.1 49 9.4 65 65 NE 8 13 29.96 1015 10 16 0.00 0.00
4:53 am 04:53 Partly Cloudy 60 15.6 48 8.9 65 65 ENE 8 13 29.97 1015 10 16 0.00 0.00
5:53 am 05:53 Cloudy 59 15 50 10 72 72 NE 9 15 30.00 1016 10 16 0.00 0.00
6:53 am 06:53 Sunny 59 15 50 10 72 72 E 5 7 30.02 1017 10 16 0.00 0.00
7:53 am 07:53 Sunny 61 16.1 49 9.4 65 65 ESE 7 11 30.02 1017 10 16 0.00 0.00
8:53 am 08:53 Partly Cloudy 63 17.2 50 10 63 63 E 6 9 30.04 1017 10 16 0.00 0.00
9:53 am 09:53 Cloudy 64 17.8 50 10 60 60 SE 13 20 30.06 1018 10 16 0.00 0.00
10:53 am 10:53 Mostly Cloudy 65 18.3 51 10.6 61 61 SE 9 15 30.06 1018 10 16 0.00 0.00
11:53 am 11:53 Sunny 66 18.9 51 10.6 59 59 ESE 9 15 30.03 1017 10 16 0.00 0.00
12:53 pm 12:53 Cloudy with Light Rain 64 17.8 54 12.2 70 70 ENE 12 19 30.02 1017 10 16 0.01 0.25
1:53 pm 13:53 Sunny 65 18.3 52 11.1 63 63 E 14 22 29.96 1015 10 16 0.00 0.03
2:53 pm 14:53 Mostly Cloudy 66 18.9 53 11.7 63 63 SSE 13 20 30.00 1016 10 16 0.00 0.00
3:53 pm 15:53 Sunny 68 20 51 10.6 55 55 SE 8 13 30.05 1018 10 16 0.00 0.00
4:53 pm 16:53 Cloudy 69 20.6 53 11.7 57 57 SSE 9 15 30.03 1017 10 16 0.00 0.00
5:53 pm 17:53 Cloudy 68 20 53 11.7 59 59 ESE 5 7 30.03 1017 10 16 0.00 0.00
6:53 pm 18:53 Sunny 69 20.6 55 12.8 61 61 ENE 6 9 30.02 1017 10 16 0.00 0.00
7:53 pm 19:53 Sunny 71 21.7 53 11.7 53 53 ESE 7 11 30.01 1016 10 16 0.00 0.00
8:53 pm 20:53 Sunny 69 20.6 52 11.1 55 55 E 7 11 30.01 1016 10 16 0.00 0.00
9:53 pm 21:53 Clear 66 18.9 52 11.1 61 61 E 7 11 30.03 1017 10 16 0.00 0.00
10:53 pm 22:53 Clear 65 18.3 52 11.1 63 63 E 7 11 30.03 1017 10 16 0.00 0.00
11:53 pm 23:53 Clear 64 17.8 52 11.1 65 65 VRB 5 7 30.03 1017 10 16 0.00 0.00

Powered by AerisWeather